TimeCDT,TemperatureF,Dew PointF,Humidity,Sea Level PressureIn,VisibilityMPH,Wind Direction,Wind SpeedMPH,Gust SpeedMPH,PrecipitationIn,Events,Conditions,WindDirDegrees,DateUTC
12:56 AM,79.0,73.9,84,30.05,10.0,SSW,10.4,-,N/A,,Clear,210,2013-07-22 05:56:00
1:56 AM,79.0,75.0,88,30.03,10.0,SSW,10.4,-,N/A,,Clear,210,2013-07-22 06:56:00
2:56 AM,80.1,75.0,85,30.03,10.0,SW,8.1,-,N/A,,Partly Cloudy,220,2013-07-22 07:56:00
3:08 AM,80.6,75.2,84,30.03,10.0,SW,9.2,-,N/A,,Mostly Cloudy,220,2013-07-22 08:08:00
3:56 AM,80.1,75.9,87,30.03,10.0,SW,6.9,-,N/A,,Mostly Cloudy,230,2013-07-22 08:56:00
4:56 AM,80.1,75.9,87,30.03,10.0,SW,6.9,-,N/A,,Mostly Cloudy,230,2013-07-22 09:56:00
5:08 AM,80.6,75.2,84,30.03,10.0,WSW,6.9,-,N/A,,Scattered Clouds,240,2013-07-22 10:08:00
5:56 AM,80.1,75.9,87,30.05,10.0,WSW,4.6,-,N/A,,Scattered Clouds,240,2013-07-22 10:56:00
6:18 AM,80.6,75.2,84,30.04,10.0,WSW,5.8,-,N/A,,Mostly Cloudy,250,2013-07-22 11:18:00
6:46 AM,80.6,77.0,89,30.04,10.0,West,3.5,-,0.00,Rain-Thunderstorm,Light Thunderstorms and Rain,260,2013-07-22 11:46:00
6:56 AM,80.1,77.0,90,30.05,10.0,SW,5.8,-,0.00,Thunderstorm,Thunderstorm,220,2013-07-22 11:56:00
7:36 AM,78.8,73.4,83,30.06,10.0,Variable,3.5,-,0.00,Rain,Light Rain,0,2013-07-22 12:36:00
7:52 AM,80.6,73.4,79,30.06,10.0,SW,4.6,-,0.00,,Mostly Cloudy,230,2013-07-22 12:52:00
7:56 AM,80.1,75.0,85,30.07,10.0,SW,3.5,-,0.00,,Mostly Cloudy,220,2013-07-22 12:56:00
8:56 AM,82.0,75.0,79,30.07,10.0,WSW,5.8,-,N/A,,Mostly Cloudy,250,2013-07-22 13:56:00
9:56 AM,84.0,75.9,76,30.06,10.0,SW,10.4,16.1,N/A,,Mostly Cloudy,230,2013-07-22 14:56:00
10:53 AM,84.2,75.2,74,30.05,10.0,SW,12.7,17.3,N/A,Thunderstorm,Thunderstorm,230,2013-07-22 15:53:00
10:56 AM,84.9,75.9,74,30.06,10.0,WSW,11.5,17.3,N/A,Thunderstorm,Thunderstorm,240,2013-07-22 15:56:00
11:14 AM,80.6,73.4,79,30.07,0.5,NW,12.7,19.6,0.05,Rain-Thunderstorm,Thunderstorms and Rain,310,2013-07-22 16:14:00
11:16 AM,77.0,73.4,89,30.07,1.0,WNW,10.4,19.6,0.09,Rain-Thunderstorm,Thunderstorms and Rain,290,2013-07-22 16:16:00
11:19 AM,75.2,71.6,89,30.08,0.2,WNW,11.5,24.2,0.26,Fog-Rain-Thunderstorm,Heavy Thunderstorms and Rain,290,2013-07-22 16:19:00
11:24 AM,75.2,71.6,89,30.07,2.0,West,4.6,24.2,0.39,Rain-Thunderstorm,Heavy Thunderstorms and Rain,280,2013-07-22 16:24:00
11:32 AM,75.2,73.4,94,30.07,3.0,NW,4.6,-,0.39,Rain-Thunderstorm,Light Thunderstorms and Rain,320,2013-07-22 16:32:00
11:56 AM,75.9,73.9,94,30.06,5.0,NNW,5.8,-,0.39,Rain-Thunderstorm,Light Thunderstorms and Rain,340,2013-07-22 16:56:00
12:13 PM,75.2,73.4,94,30.11,1.5,WSW,11.5,18.4,0.06,Rain-Thunderstorm,Heavy Thunderstorms and Rain,250,2013-07-22 17:13:00
12:16 PM,75.2,73.4,94,30.09,0.5,SW,19.6,25.3,0.13,Fog-Rain-Thunderstorm,Heavy Thunderstorms and Rain,230,2013-07-22 17:16:00
12:21 PM,73.4,71.6,94,30.08,1.5,WSW,8.1,25.3,0.17,Rain-Thunderstorm,Heavy Thunderstorms and Rain,250,2013-07-22 17:21:00
12:28 PM,73.4,73.4,100,30.08,2.0,WSW,9.2,19.6,0.17,Rain-Thunderstorm,Thunderstorms and Rain,250,2013-07-22 17:28:00
12:40 PM,73.4,73.4,100,30.08,2.5,SW,5.8,16.1,0.19,Rain-Thunderstorm,Thunderstorms and Rain,230,2013-07-22 17:40:00
12:56 PM,73.9,73.0,97,30.07,4.0,WSW,6.9,-,0.22,Rain-Thunderstorm,Light Thunderstorms and Rain,240,2013-07-22 17:56:00
1:01 PM,73.4,73.4,100,30.07,5.0,WSW,5.8,-,N/A,Rain,Light Rain,250,2013-07-22 18:01:00
1:37 PM,75.2,73.4,94,30.05,10.0,West,5.8,-,0.00,,Mostly Cloudy,270,2013-07-22 18:37:00
1:56 PM,78.1,73.9,87,30.06,10.0,WSW,8.1,-,0.00,,Mostly Cloudy,240,2013-07-22 18:56:00
2:56 PM,81.0,75.0,82,30.05,10.0,SW,10.4,-,0.00,,Overcast,220,2013-07-22 19:56:00
3:56 PM,82.9,78.1,85,30.04,10.0,SSW,8.1,-,N/A,,Overcast,200,2013-07-22 20:56:00
4:21 PM,82.4,78.8,89,30.03,10.0,SW,16.1,-,0.00,Rain,Light Rain,220,2013-07-22 21:21:00
4:52 PM,80.6,78.8,94,30.01,5.0,SW,5.8,21.9,0.04,Rain-Thunderstorm,Light Thunderstorms and Rain,230,2013-07-22 21:52:00
4:56 PM,82.0,80.1,94,30.02,5.0,SW,9.2,-,0.04,Rain-Thunderstorm,Light Thunderstorms and Rain,220,2013-07-22 21:56:00
5:11 PM,82.4,78.8,89,30.01,10.0,SW,12.7,-,0.00,Thunderstorm,Thunderstorm,230,2013-07-22 22:11:00
5:23 PM,80.6,78.8,94,30.01,10.0,WSW,8.1,17.3,0.00,Rain-Thunderstorm,Light Thunderstorms and Rain,240,2013-07-22 22:23:00
5:56 PM,71.1,70.0,96,30.04,0.2,NW,24.2,35.7,0.26,Fog-Rain-Thunderstorm,Heavy Thunderstorms and Rain,320,2013-07-22 22:56:00
6:13 PM,71.6,69.8,94,30.02,3.0,NW,5.8,-,0.17,Rain-Thunderstorm,Heavy Thunderstorms and Rain,310,2013-07-22 23:13:00
6:56 PM,73.0,71.1,93,30.04,10.0,SE,5.8,-,0.18,Rain-Thunderstorm,Light Thunderstorms and Rain,130,2013-07-22 23:56:00
7:29 PM,73.4,71.6,94,30.06,0.5,WNW,15.0,24.2,0.06,Fog-Rain-Thunderstorm,Light Thunderstorms and Rain,300,2013-07-23 00:29:00
7:52 PM,71.6,69.8,94,30.06,3.0,WSW,8.1,-,0.28,Rain-Thunderstorm,Thunderstorms and Rain,240,2013-07-23 00:52:00
7:56 PM,71.1,70.0,96,30.06,3.0,WSW,6.9,-,0.29,Rain-Thunderstorm,Heavy Thunderstorms and Rain,250,2013-07-23 00:56:00
8:56 PM,72.0,71.1,97,30.08,7.0,SW,4.6,-,0.05,Rain-Thunderstorm,Thunderstorms and Rain,230,2013-07-23 01:56:00
9:06 PM,71.6,71.6,100,30.07,5.0,WSW,4.6,-,0.02,Rain,Heavy Rain,240,2013-07-23 02:06:00
9:56 PM,73.0,72.0,96,30.08,7.0,Calm,Calm,-,0.06,Rain,Light Rain,0,2013-07-23 02:56:00
10:56 PM,73.0,73.0,100,30.06,10.0,Calm,Calm,-,0.03,Rain,Light Rain,0,2013-07-23 03:56:00
11:56 PM,73.9,73.0,97,30.04,10.0,SSW,4.6,-,N/A,,Clear,210,2013-07-23 04:56:00